STARLINK-5685, 55477

Orbit data source: Space-Track

STARLINK-5685, 55477 is a payload satellite owned by SpaceX/Seattle (US) in LEO that was launched on Thu, 02 Feb 2023 UTC via an FALCON 9 launch vehicle from the Air Force Eastern Test Range (AFETR). Payload-class satellites include a variety of spacecraft equipped with specific instruments for various scientific and technological missions. These include communications satellites like Starlink; space stations such as the ISS; scientific satellites like the Hubble; Earth observation satellites from companies like Planet Labs, Umbra, and HawkEye 360; GPS; miniature CubeSats for education and research; and military/defense satellites.

Loading next visibility...
Identifier
55477, 2023-015AE
Orbit
LEO
Last TLE update
18 hours ago
Origin
Manufacturer
SpaceX/Seattle
Mission
Operational Commercial Communications
Bus & Motor
STARLINK, Unknown motor
Mass
305 kg wet, ~290 kg dry
Launch date (UTC)
2023-02-02 (2 years ago)
Launch vehicle
FALCON 9
Launch site
Air Force Eastern Test Range (AFETR)
Object type
Payload
Rocket body
Debris
Shape & HBR
Box + 1 Pan, 8.86 m
Radar Cross Section
13.562 m², Large (>1 m²)

Expand to show TLE details & history

TLE from 18 hours ago
0 STARLINK-5685
1 55477U 23015AE  25191.28313009  .00000379  00000-0  43111-4 0  9996
2 55477  43.0028 190.6733 0001266 280.7454  79.3246 15.02538672134436
Epoch: 2025-07-10T06:47Z
TLE epoch observation values (Epoch: 2025-07-10T06:47:42.439Z)
Latitude
-0.00002°
Longitude
160.29482°
Altitude
558.687 km
Speed
7.584 km/s
True Right ascension
12h 42m 41s
True Declination
0° 00' 00"
Sunlit
Object was in daylight at epoch
Visualization orbit readout
Latitude
6.97021°
Longitude
163.8008°
Altitude
558.134 km
Speed
7.585 km/s
Apparent Right ascension
13h 38m 01s
Apparent Declination
-57° 50' 42"
Sunlit
Object is in daylight
Visualization observer readout
Local Sidereal Time
12:39:38
Azimuth
172.205° S
Elevation
-8.524°
Doppler factor
1
Orbital elements
Apogee altitude
561.873 km
Perigee altitude
560.116 km
Semi-major axis
6,939.132 km
Eccentricity
0.00013
Inclination
43.0028°
RAAN
190.6733°
Arg. of periapsis
280.7454°
True anomaly
Unknown
Mean anomaly
79.3246°
Eccentric anomaly
Unknown
Mean motion
3.75479 °/min
Orbital period
95.88 mins
BSTAR
0.000043111
Loading maneuver chart data...
Loading SW <> Apogee altitude chart data...
Loading historical data...
Loading historical data...
Loading historical data...
Loading historical data...
Loading historical data...
Loading historical data...
Loading historical data...

STARLINK-5685 Visibility forecast

Observer location: undefined°, undefined°

Span
Click to sort rows by Start time (UTC) header in descending order
Start Az.
Max El. time (UTC)
Max El. Az.
Max El.
End time (UTC)
End Az.
4 mins2025-07-11 02:07:25.306Z168.062° S2025-07-11 02:09:25.306Z135.463° SSE15.283°2025-07-11 02:11:25.306Z105.786° ESE
6 mins2025-07-11 03:46:25.306Z234.169° WSW2025-07-11 03:49:25.306Z140.441° SSE42.079°2025-07-11 03:52:25.306Z76.965° E
6 mins2025-07-11 05:27:25.306Z279.942° WNW2025-07-11 05:30:25.306Z21.011° NNE39.376°2025-07-11 05:33:25.306Z71.507° E
6 mins2025-07-11 07:08:25.306Z293.02° NW2025-07-11 07:11:25.306Z52.889° ENE41.394°2025-07-11 07:14:25.306Z94.233° ESE
6 mins2025-07-11 08:49:25.306Z267.258° W2025-07-11 08:51:25.306Z215.385° SW34.181°2025-07-11 08:55:25.306Z138.11° SSE
|